Location: ????
(32.1228°N, 34.8377°E)
Time: 03:33:03
(UTC+00:00)

Cosmos 2219 Rocket - Pass Details

Date: 21 September 2020
Orbit: 827 x 847 km, 71.0° (Epoch: 23 October)

Event Time Altitude Azimuth Distance (km) Brightness Sun altitude
Rises 02:36:46 0° 186° (S) 3,374 5.2 -11.7°
Reaches altitude 10° 02:39:14 10° 182° (S) 2,446 4.5 -11.2°
Maximum altitude 02:44:41 53° 106° (ESE) 1,024 3.1 -10.1°
Drops below altitude 10° 02:50:11 10° 31° (NNE) 2,470 5.2 -8.9°
Sets 02:52:41 0° 27° (NNE) 3,410 5.8 -8.4°
